610  
ASUS44 KSJT 210102  
RWRSJT  
WEST CENTRAL TEXAS REGIONAL WEATHER ROUNDUP  
NATIONAL WEATHER SERVICE SAN ANGELO TX  
700 PM CST THU FEB 20 2020  
 
NOTE: "FAIR" INDICATES FEW OR NO CLOUDS BELOW 12,000 FEET WITH NO  
SIGNIFICANT WEATHER AND/OR S TO VISIBILITY
.  
 
TXZ049-054-064>066-071>073-076>078-098-099-113-114-127-128-139-140-  
154-155-168>170-210200   
..LOCATIONS ACROSS WEST CENTRAL TEXAS
 
 
 
CITY SKY/WX TMP DP RH WIND PRES REMARKS
 
SAN ANGELO PTCLDY 43 32 65 N16G24 30.58R WCI 35  
ABILENE CLOUDY 42 29 59 N14G22 30.61R WCI 35  
DYESS AFB CLOUDY 40 27 60 N17 30.60S WCI 31  
JUNCTION CLEAR 46 35 65 N9 30.54R  
SWEETWATER PTCLDY 38 29 71 N10 30.62S WCI 31  
BROWNWOOD NOT AVBL  
COLEMAN NOT AVBL  
SONORA CLEAR 43 32 65 N8 30.58R WCI 38  
OZONA FAIR 43 32 65 NE8 30.57R WCI 38  
BRADY PTCLDY 45 34 65 N10 30.53R WCI 39  

 
 
TEXAS PANHANDLE/OKLAHOMA PANHANDLE  
 
CITY SKY/WX TMP DP RH WIND PRES REMARKS
 
AMARILLO PTCLDY 22 16 78 NE8 30.62R WCI 12  
BORGER CLOUDY 32 19 58 CALM 30.66R  
CANADIAN CLEAR 30 22 74 N5 30.69R WCI 25  
DALHART CLEAR 23 16 74 E8 30.60R WCI 14  
DUMAS MOCLDY 25 18 74 SE5 30.63R WCI 19  
GUYMON NOT AVBL  
HEREFORD CLOUDY 32 23 68 E7 30.62R WCI 26  
PAMPA CLEAR 27 19 72 N3 30.66R  
PERRYTON CLOUDY 28 22 78 CALM 30.64  

 
 
SOUTHERN PANHANDLE/SOUTH PLAINS/ROLLING PLAINS  
 
CITY SKY/WX TMP DP RH WIND PRES REMARKS
 
LUBBOCK PTCLDY 35 22 58 E13 30.59R WCI 26  
SNYDER CLEAR 38 26 63 NE10 30.61R WCI 31  
CHILDRESS CLEAR 36 21 54 N8 30.68R WCI 30  
SEMINOLE CLOUDY 41 24 51 E12 30.61S WCI 34  

 
 
PERMIAN BASIN  
 
CITY SKY/WX TMP DP RH WIND PRES REMARKS
 
MIDLAND CLEAR 39 29 67 E8 30.58R WCI 33  
ODESSA CLOUDY 38 28 67 E9 30.58R WCI 31  
WINK CLOUDY 43 27 53 NE8 30.57R WCI 38  

 
 
FAR WEST/SOUTHWEST MOUNTAINS/TRANS PECOS  
 
CITY SKY/WX TMP DP RH WIND PRES REMARKS
 
ALPINE CLOUDY 33 33 99 NE14 30.58R WCI 24  
DRYDEN N/A 47 33 58 N10 30.50R  
EL PASO PTCLDY 46 30 53 E18 30.40R WCI 39  
FORT STOCKTON CLOUDY 41 32 70 NE13 30.57R WCI 34  
GUADALUPE PASS CLOUDY 27 26 96 NE32 30.46 FOG WCI 10  
MARFA CLOUDY 34 31 88 NE16G23 30.50R WCI 24  
PECOS CLOUDY 45 31 57 NE6 30.58R  

 
 
DALLAS/FORT WORTH METROPLEX  
 
CITY SKY/WX TMP DP RH WIND PRES REMARKS
 
DFW AIRPORT PTCLDY 43 31 62 N21G29 30.58R WCI 34  
FTW MEACHAM CLEAR 42 32 67 N15 30.60R WCI 34  
DAL-EXECUTIVE PTCLDY 45 31 58 N14G26 30.58R WCI 38  
GRAND PRAIRIE CLEAR 43 31 62 N23 30.61 WCI 34  
ADDISON CLEAR 43 30 61 N16G22 30.61R WCI 35  
MESQUITE NOT AVBL  
LANCASTER CLEAR 44 32 63 N17G25 30.60R WCI 36  

 
 
NORTH CENTRAL TEXAS  
 
CITY SKY/WX TMP DP RH WIND PRES REMARKS
 
SHRMAN/DENISON CLEAR 39 28 65 N7 30.64R WCI 34  
GAINESVILLE CLEAR 39 27 62 N8 30.66R WCI 34  
BRIDGEPORT CLEAR 40 30 67 N8 30.66R WCI 35  
DENTON CLEAR 41 29 62 N12 30.63R WCI 34  
WAXAHACHIE CLEAR 43 34 70 N17G24 30.59R WCI 35  
GRANBURY CLEAR 46 32 59 N13G20 30.63R WCI 40  

 
 
WESTERN NORTH TEXAS  
 
CITY SKY/WX TMP DP RH WIND PRES REMARKS
 
WICHITA FALLS CLEAR 36 27 69 N9 30.67R WCI 29  
VERNON CLEAR 39 25 57 NE9 30.69 WCI 32  
BRECKENRIDGE CLEAR 42 31 65 N7 30.64R HAZE WCI 37  
COMANCHE NOT AVBL  

 
 
CENTRAL AND SOUTH CENTRAL TEXAS  
 
CITY SKY/WX TMP DP RH WIND PRES REMARKS
 
AUSTIN/BERGSTM MOCLDY 50 39 66 N15 30.50R  
WACO PTCLDY 49 34 56 N16G29 30.54R  
HILLSBORO CLEAR 45 35 68 N21G28 30.56R WCI 37  
TEMPLE CLOUDY 49 35 58 N13G20 30.53R  
KILLEEN-GRAY PTCLDY 46 35 64 NE12 30.51R  
FORT HOOD MOCLDY 47 35 62 N9 30.52R  
GEORGETOWN CLEAR 47 35 63 N9 30.53R  
LAGO VISTA FAIR 44 36 75 N5 30.51R  
SAN MARCOS CLEAR 48 41 76 NE12 30.50R  
NEW BRAUNFELS CLOUDY 49 40 71 N14 30.48R  
RANDOLPH AFB MOCLDY 48 40 75 N12 30.48R  
SAN ANTONIO MOCLDY 49 39 68 N12G25 30.49R  
STINSON CLOUDY 48 40 73 N13G21 30.47R  
PLEASANTON NOT AVBL  
LA GRANGE CLOUDY 50 42 73 N12G20 30.46R  
GIDDINGS CLEAR 49 38 67 N10G20 30.49R  

 
 
EAST TEXAS  
 
CITY SKY/WX TMP DP RH WIND PRES REMARKS
 
PARIS PTCLDY 40 31 70 N13 30.60R WCI 32  
CLARKSVILLE NOT AVBL  
TYLER CLOUDY 47 32 56 N16G24 30.53R  
LONGVIEW CLOUDY 45 34 65 N12 30.53R WCI 39  
PALESTINE CLEAR 46 38 73 N7 30.54R  
NACOGDOCHES CLOUDY 44 37 76 N6 30.53R  

 
 
TEXAS HILL COUNTRY AND EDWARDS PLATEAU  
 
CITY SKY/WX TMP DP RH WIND PRES REMARKS
 
LLANO NOT AVBL  
HORSESHOE BAY NOT AVBL  
KERRVILLE PTCLDY 46 35 64 N8 30.50R  
FREDERICKSBRG CLEAR 45 33 62 NE9 30.51R WCI 40  
ROCKSPRINGS N/A 45 34 65 N10 30.54R WCI 39  
HONDO CLOUDY 49 38 65 NE8 30.50R  
UVALDE CLOUDY 51 39 64 NE5 30.51R  
DEL RIO CLOUDY 55 38 52 NW6 30.52R  

 
 
SOUTHEAST TEXAS  
 
CITY SKY/WX TMP DP RH WIND PRES REMARKS
 
COLLEGE STN CLEAR 50 38 63 N14 30.49R  
CALDWELL NOT AVBL  
CROCKETT NOT AVBL  
BRENHAM PTCLDY 50 41 71 N9 30.49R  
HUNTSVILLE CLOUDY 48 36 63 VRB7 30.49R  
CONROE CLOUDY 48 38 68 N12G28 30.47R  
HOUSTON BUSH CLOUDY 50 41 71 N20 30.45R  
HOUSTON HOBBY CLOUDY 50 41 71 N17G26 30.42R  
PERLAND CLOUDY 51 40 65 N15G25 30.43R  
WHARTON CLOUDY 48 41 76 N17G24 30.44R  

 
 
THE UPPER TEXAS COAST  
 
CITY SKY/WX TMP DP RH WIND PRES REMARKS
 
ORANGE DRIZZLE 47 42 81 N15G29 30.42R  
PORT ARTHUR CLOUDY 48 42 80 N23G33 30.40R  
GALVESTON CLOUDY 52 45 77 N26G37 30.40R  
ANGLETON CLOUDY 50 42 74 N21G31 30.40R  
BAY CITY CLOUDY 52 46 79 N16G22 30.40R  

 
 
TEXAS COASTAL BEND, RIO GRANDE PLAINS DEEP SOUTH TEXAS  
 
CITY SKY/WX TMP DP RH WIND PRES REMARKS
 
VICTORIA CLOUDY 50 44 80 N17G24 30.44R  
BEEVILLE CLOUDY 49 47 95 N14G22 30.45R  
ROCKPORT CLOUDY 51 45 79 N17G31 30.42R  
PORT ARANSAS CLOUDY 49 47 91 N23G36 30.43R  
PORT LAVACA CLOUDY 51 46 84 N20G28 30.43R  
CORPUS CHRISTI LGT RAIN 48 46 93 N17 30.43R FOG  
KINGSVILLE NAS LGT RAIN 48 46 93 N15G23 30.44 FOG  
COTULLA CLOUDY 48 47 96 N6 30.51R  
LAREDO CLOUDY 48 45 89 N13 30.50R  
BROWNSVILLE LGT RAIN 50 48 93 NW15 30.38R  
PORT ISABEL LGT RAIN 51 48 89 NW22 30.37R  
HEBBRONVILLE LGT RAIN 46 45 96 N14G21 30.47R WCI 40  
MCALLEN LGT RAIN 50 47 89 N15G24 30.44R  
WESLACO NOT AVBL  
FALFURRIAS CLOUDY 50 47 90 N10 30.45R  
EDINBURG CLOUDY 48 46 93 N18 30.44R FOG  

 
 
 
CLICK HERE TO GO TO PREVIOUS BULLETINS.

The Nexlab TX Page Main Text Page